TimeAKST,TemperatureF,Dew PointF,Humidity,Sea Level PressureIn,VisibilityMPH,Wind Direction,Wind SpeedMPH,Gust SpeedMPH,PrecipitationIn,Events,Conditions,WindDirDegrees,DateUTC
12:53 AM,-9.0,-15.0,75,30.10,3.0,Calm,Calm,-,N/A,Snow,Light Snow,0,2013-11-29 09:53:00
1:53 AM,-11.0,-17.0,75,30.12,2.0,Calm,Calm,-,N/A,Snow,Light Snow,0,2013-11-29 10:53:00
3:42 AM,-14.1,-20.0,75,30.08,5.0,NNE,3.5,-,N/A,Snow,Light Snow,30,2013-11-29 12:42:00
3:53 AM,-15.0,-20.9,75,30.13,6.0,Calm,Calm,-,N/A,Snow,Light Snow,0,2013-11-29 12:53:00
4:53 AM,-15.0,-20.9,75,30.13,7.0,NE,4.6,-,N/A,Snow,Light Snow,50,2013-11-29 13:53:00
5:53 AM,-15.0,-20.0,78,30.15,8.0,Calm,Calm,-,N/A,Snow,Light Snow,0,2013-11-29 14:53:00
6:53 AM,-15.0,-20.9,75,30.16,8.0,Calm,Calm,-,N/A,Snow,Light Snow,0,2013-11-29 15:53:00
7:53 AM,-16.1,-22.0,74,30.18,8.0,NE,3.5,-,N/A,Snow,Light Snow,40,2013-11-29 16:53:00
8:53 AM,-11.0,-18.0,71,30.19,5.0,Calm,Calm,-,N/A,Snow,Light Snow,0,2013-11-29 17:53:00
9:53 AM,-11.0,-17.0,75,30.19,7.0,Calm,Calm,-,N/A,Snow,Light Snow,0,2013-11-29 18:53:00
10:53 AM,-9.9,-16.1,74,30.22,10.0,Calm,Calm,-,N/A,Snow,Light Snow,0,2013-11-29 19:53:00
11:53 AM,-7.1,-13.0,75,30.23,5.0,Calm,Calm,-,N/A,Snow,Light Snow,0,2013-11-29 20:53:00
12:53 PM,-5.1,-11.0,76,30.24,5.0,Calm,Calm,-,N/A,Snow,Light Snow,0,2013-11-29 21:53:00
1:53 PM,-4.0,-11.0,72,30.25,5.0,Calm,Calm,-,N/A,Snow,Light Snow,0,2013-11-29 22:53:00
2:53 PM,-8.0,-13.0,79,30.27,10.0,NNE,3.5,-,N/A,Snow,Light Snow,20,2013-11-29 23:53:00
3:53 PM,-11.0,-17.0,75,30.28,10.0,Calm,Calm,-,N/A,,Mostly Cloudy,0,2013-11-30 00:53:00
4:53 PM,-13.0,-18.9,75,30.29,10.0,Calm,Calm,-,N/A,,Mostly Cloudy,0,2013-11-30 01:53:00
5:53 PM,-9.0,-16.1,71,30.31,6.0,Calm,Calm,-,N/A,Snow,Light Snow,0,2013-11-30 02:53:00
6:31 PM,-8.0,-14.1,75,30.27,3.0,East,3.5,-,N/A,Snow,Light Snow,80,2013-11-30 03:31:00
6:53 PM,-9.0,-15.0,75,30.32,5.0,ENE,4.6,-,N/A,Snow,Light Snow,60,2013-11-30 03:53:00
7:53 PM,-7.1,-13.0,75,30.33,6.0,NNE,4.6,-,N/A,Snow,Light Snow,30,2013-11-30 04:53:00
8:53 PM,-8.0,-14.1,75,30.35,6.0,Calm,Calm,-,N/A,Snow,Light Snow,0,2013-11-30 05:53:00
9:38 PM,-11.0,-16.1,78,30.30,6.0,Calm,Calm,-,N/A,Snow,Light Snow,0,2013-11-30 06:38:00
9:53 PM,-11.0,-17.0,75,30.36,6.0,Calm,Calm,-,N/A,Snow,Light Snow,0,2013-11-30 06:53:00
10:53 PM,-9.0,-16.1,71,30.38,4.0,NNE,4.6,-,N/A,Snow,Light Snow,30,2013-11-30 07:53:00
11:53 PM,-13.0,-18.9,75,30.39,6.0,NE,4.6,-,N/A,Snow,Light Snow,50,2013-11-30 08:53:00